Tracking 35237 objects as of 5-Sep-2026
HD Live streaming from Space Station
objects crossing your sky now

WESTFORD NEEDLES

Track WESTFORD NEEDLES now!
10-day predictions
WESTFORD NEEDLES is classified as:


NORAD ID: 2362
Int'l Code: 1963-014M
Launch date: May 9, 1963
Source: United States (US)
Launch site: AIR FORCE WESTERN TEST RANGE (AFWTR)
Your satellite tracking list
Your tracking list is empty




NASA's NSSDC Master Catalog

Two Line Element Set (TLE):
1 02362U 63014M   26248.13431004  .00004471  00000-0  36202-1 0  9995
2 02362  85.1176 299.8239 2577159 290.3188  44.0681  8.86354209 13835
Source of the keplerian elements: AFSPC